Tracking 20628 objects as of 6-Apr-2020
HD Live streaming from Space Station
objects crossing your sky now

COSMOS 2190

Track COSMOS 2190 now!
10-day predictions
COSMOS 2190 is classified as:


NORAD ID: 21979
Int'l Code: 1992-030D
Perigee: 1,437.1 km
Apogee: 1,487.4 km
Inclination: 74.0 °
Period: 115.0 minutes
Semi major axis: 7833 km
RCS: 0.7129 m2 (medium)
Launch date: June 3, 1992
Source: Commonwealth of Independent States (former USSR) (CIS)
Launch site: PLESETSK MISSILE AND SPACE COMPLEX (PKMTR)
aabbcc
Your satellite tracking list
Your tracking list is empty




NASA's NSSDC Master Catalog

Two Line Element Set (TLE):
1 21979U 92030D   20096.83565760 -.00000017 +00000-0 -48649-5 0  9995
2 21979 074.0067 002.1424 0032132 275.6920 149.6898 12.52242825272659
Source of the keplerian elements: AFSPC